Flag Weather past 2 weeks in Montgomery, Alabama, U.S.A.

Now
45 °F

Passing clouds.


Feels Like: 45 °F
Forecast: 38 / 64 °F
Wind: No wind

Location: Maxwell Air Force Base / Montgomery

Current Time: Nov 20, 2014 at 9:30:21 PM

Latest Report: Nov 20, 2014 at 8:58 PM


Visibility: 10 mi

Pressure: 30.26 "Hg

Humidity: 92%

Dew point: 43 °F

Location of MontgomeryLocation

Historic Weather in Montgomery — Graph

°F

Montgomery temperature yesterday

Maximum temperature yesterday: 53 °F (at 2:58 PM)
Minimum temperature yesterday: 19 °F (at 5:58 AM)
Average temperature yesterday: 34 °F

Past Weeks' High & Low Weather Summary

 TemperatureHumidityPressure
High74 °F (Nov 11, 2:58 PM)100% (Nov 9, 4:03 AM)30.49 "Hg (Nov 9, 4:03 AM)
Low19 °F (Nov 19, 5:58 AM)24% (Nov 14, 1:58 PM)29.70 "Hg (Nov 17, 5:02 AM)
Average48 °F71%30.15 "Hg
* Reported Nov 5 7:58 PM — Nov 20 7:58 PM, Montgomery, Weather by CustomWeather, © 2014

Note: Actual official high and low records may vary slightly from our data, if they occured in-between our weather recording intervals... More about our weather records

Advertising

Montgomery weather history for previous 24 hours

 ConditionsComfort  
Time TempWeatherWind HumidityBarometerVisibility
7:58 PM
Nov 20
47 °FClear.1 mph92%30.25 "Hg10 mi
6:58 PM49 °FClear.No wind85%30.24 "Hg10 mi
5:58 PM51 °FClear.No wind76%30.23 "Hg10 mi
4:58 PM57 °FClear.1 mph63%30.23 "Hg10 mi
3:58 PM63 °FSunny.3 mph52%30.23 "Hg10 mi
2:58 PM64 °FSunny.5 mph50%30.21 "Hg10 mi
1:58 PM64 °FPartly sunny.3 mph52%30.22 "Hg10 mi
12:58 PM63 °FScattered clouds.5 mph51%30.23 "Hg10 mi
11:58 AM61 °FSunny.3 mph52%30.25 "Hg10 mi
10:58 AM58 °FSunny.6 mph55%30.29 "Hg10 mi
9:58 AM53 °FSunny.5 mph61%30.31 "Hg10 mi
8:58 AM44 °FSunny.No wind73%30.33 "Hg10 mi
7:58 AM37 °FSunny.No wind88%30.32 "Hg10 mi
6:58 AM30 °FSunny.No wind92%30.31 "Hg10 mi
5:58 AM29 °FClear.No wind92%30.29 "Hg10 mi
4:58 AM29 °FClear.No wind91%30.28 "Hg10 mi
3:58 AM29 °FClear.2 mph89%30.28 "Hg10 mi
2:58 AM29 °FClear.No wind89%30.29 "Hg10 mi
1:58 AM29 °FClear.No wind89%30.30 "Hg10 mi
12:58 AM30 °FClear.2 mph85%30.32 "Hg10 mi
11:58 PM
Nov 19
29 °FClear.No wind90%30.33 "Hg10 mi
10:58 PM31 °FClear.1 mph90%30.33 "Hg10 mi
9:58 PM32 °FClear.No wind85%30.33 "Hg10 mi
Weather by CustomWeather, © 2014

See weather overviewHow to use our weather pages